When you browse on this site, cookies collect data to enhance your experience and personalize the content and advertising you see.
Visit our Privacy Policy to learn more. By continuing to use the site, you agree to this use of cookies and data.
  • In Portugal
  • List of Countries
  • For 7 days
  • Water Temperature
  • Satellite Maps
  • Weather Map
  • Weather Widgets
  • user-avatar
    Login

    Hourly Weather Sinemorec

    Today, 25 May, Saturday

    Time Temperature Precipitation Wind Pressure Humidity
    00:00 +14°C° 0 mm 3 mps 755 mmHg 90%
    01:00 +14°C° 0 mm 3 mps 755 mmHg 90%
    02:00 +13°C° 0 mm 3 mps 755 mmHg 89%
    03:00 +13°C° 0 mm 3 mps 755 mmHg 88%
    04:00 +13°C° 0 mm 3 mps 755 mmHg 88%
    05:00 +13°C° 0 mm 3 mps 755 mmHg 88%
    06:00 +16°C° 0 mm 3 mps 756 mmHg 80%
    07:00 +18°C° 0 mm 3 mps 756 mmHg 72%
    08:00 +20°C° 0 mm 2 mps 756 mmHg 65%
    09:00 +21°C° 0.1 mm 2 mps 756 mmHg 62%
    10:00 +23°C° 0.1 mm 1 mps 757 mmHg 60%
    11:00 +24°C° 0.1 mm 1 mps 757 mmHg 58%
    12:00 +24°C° 0.3 mm 1 mps 757 mmHg 63%
    13:00 +24°C° 0.3 mm 2 mps 757 mmHg 69%
    14:00 +24°C° 0.3 mm 2 mps 757 mmHg 74%
    15:00 +24°C° 0.3 mm 2 mps 757 mmHg 75%
    16:00 +24°C° 0.3 mm 2 mps 757 mmHg 77%
    17:00 +24°C° 0.3 mm 2 mps 757 mmHg 78%
    18:00 +21°C° 0.1 mm 2 mps 757 mmHg 80%
    19:00 +19°C° 0.1 mm 2 mps 757 mmHg 82%
    20:00 +18°C° 0.1 mm 2 mps 757 mmHg 84%
    21:00 +17°C° 0 mm 2 mps 757 mmHg 86%
    22:00 +17°C° 0 mm 2 mps 757 mmHg 87%
    23:00 +17°C° 0 mm 3 mps 758 mmHg 88%

    Tomorrow, 26 May, Sunday

    Time Temperature Precipitation Wind Pressure Humidity
    00:00 +16°C° 0 mm 3 mps 758 mmHg 88%
    01:00 +16°C° 0 mm 2 mps 758 mmHg 88%
    02:00 +16°C° 0 mm 2 mps 758 mmHg 88%
    03:00 +16°C° 0 mm 2 mps 758 mmHg 88%
    04:00 +16°C° 0 mm 2 mps 758 mmHg 87%
    05:00 +16°C° 0 mm 2 mps 759 mmHg 86%
    06:00 +18°C° 0 mm 2 mps 759 mmHg 79%
    07:00 +21°C° 0 mm 2 mps 759 mmHg 71%
    08:00 +24°C° 0 mm 1 mps 759 mmHg 63%
    09:00 +25°C° 0 mm 1 mps 760 mmHg 58%
    10:00 +27°C° 0 mm 1 mps 760 mmHg 54%
    11:00 +29°C° 0 mm 1 mps 760 mmHg 49%
    12:00 +28°C° 0 mm 2 mps 760 mmHg 50%
    13:00 +28°C° 0 mm 3 mps 760 mmHg 52%
    14:00 +27°C° 0 mm 3 mps 760 mmHg 53%
    15:00 +27°C° 0 mm 3 mps 759 mmHg 56%
    16:00 +26°C° 0 mm 3 mps 759 mmHg 58%
    17:00 +26°C° 0 mm 3 mps 759 mmHg 61%
    18:00 +24°C° 0 mm 3 mps 759 mmHg 68%
    19:00 +21°C° 0 mm 3 mps 759 mmHg 75%
    20:00 +19°C° 0 mm 2 mps 760 mmHg 82%
    21:00 +19°C° 0 mm 2 mps 760 mmHg 83%
    22:00 +18°C° 0 mm 2 mps 760 mmHg 85%
    23:00 +18°C° 0 mm 2 mps 760 mmHg 86%

    Day after tomorrow, 27 May, Monday

    Time Temperature Precipitation Wind Pressure Humidity
    00:00 +18°C° 0 mm 2 mps 760 mmHg 87%
    01:00 +19°C° 0 mm 1 mps 760 mmHg 87%
    02:00 +18°C° 0 mm 1 mps 760 mmHg 88%
    03:00 +18°C° 0 mm 1 mps 760 mmHg 88%
    04:00 +18°C° 0 mm 1 mps 760 mmHg 88%
    05:00 +18°C° 0 mm 1 mps 760 mmHg 88%
    06:00 +20°C° 0 mm 1 mps 760 mmHg 79%
    07:00 +22°C° 0 mm 1 mps 760 mmHg 70%
    08:00 +24°C° 0 mm 1 mps 760 mmHg 61%
    09:00 +25°C° 0 mm 2 mps 760 mmHg 57%
    10:00 +26°C° 0 mm 2 mps 760 mmHg 53%
    11:00 +27°C° 0 mm 3 mps 760 mmHg 49%
    12:00 +27°C° 0 mm 3 mps 760 mmHg 50%
    13:00 +27°C° 0 mm 3 mps 760 mmHg 50%
    14:00 +27°C° 0 mm 3 mps 760 mmHg 50%
    15:00 +26°C° 0 mm 3 mps 759 mmHg 54%
    16:00 +25°C° 0 mm 3 mps 759 mmHg 57%
    17:00 +24°C° 0 mm 3 mps 759 mmHg 61%
    18:00 +21°C° 0 mm 2 mps 759 mmHg 71%
    19:00 +19°C° 0 mm 2 mps 759 mmHg 81%
    20:00 +18°C° 0 mm 1 mps 759 mmHg 91%
    21:00 +18°C° 0 mm 1 mps 759 mmHg 91%
    22:00 +16°C° 0 mm 1 mps 759 mmHg 91%
    23:00 +16°C° 0 mm 1 mps 759 mmHg 91%

    28 May, Tuesday

    Time Temperature Precipitation Wind Pressure Humidity
    00:00 +16°C° 0 mm 1 mps 759 mmHg 91%
    01:00 +16°C° 0 mm 1 mps 758 mmHg 90%
    02:00 +15°C° 0 mm 1 mps 758 mmHg 89%
    03:00 +15°C° 0 mm 1 mps 758 mmHg 88%
    04:00 +15°C° 0 mm 1 mps 758 mmHg 88%
    05:00 +15°C° 0 mm 1 mps 757 mmHg 87%
    06:00 +19°C° 0 mm 1 mps 757 mmHg 80%
    07:00 +22°C° 0 mm 1 mps 757 mmHg 72%
    08:00 +24°C° 0 mm 1 mps 757 mmHg 64%
    09:00 +26°C° 0 mm 1 mps 757 mmHg 59%
    10:00 +28°C° 0 mm 1 mps 757 mmHg 55%
    11:00 +30°C° 0 mm 2 mps 757 mmHg 51%
    12:00 +30°C° 0 mm 2 mps 757 mmHg 50%
    13:00 +30°C° 0 mm 3 mps 756 mmHg 50%
    14:00 +31°C° 0 mm 3 mps 756 mmHg 49%
    15:00 +30°C° 0 mm 3 mps 756 mmHg 53%
    16:00 +30°C° 0 mm 3 mps 755 mmHg 56%
    17:00 +29°C° 0 mm 4 mps 755 mmHg 60%
    18:00 +27°C° 0 mm 3 mps 755 mmHg 68%
    19:00 +25°C° 0 mm 3 mps 755 mmHg 76%
    20:00 +22°C° 0 mm 3 mps 755 mmHg 84%
    21:00 +22°C° 0 mm 3 mps 755 mmHg 80%
    22:00 +21°C° 0 mm 3 mps 755 mmHg 75%
    23:00 +21°C° 0 mm 2 mps 755 mmHg 70%

    29 May, Wednesday

    Time Temperature Precipitation Wind Pressure Humidity
    00:00 +21°C° 0 mm 3 mps 755 mmHg 62%
    01:00 +21°C° 0 mm 4 mps 755 mmHg 53%
    02:00 +22°C° 0 mm 5 mps 755 mmHg 44%
    03:00 +21°C° 0 mm 4 mps 755 mmHg 49%
    04:00 +20°C° 0 mm 4 mps 755 mmHg 54%
    05:00 +20°C° 0 mm 4 mps 755 mmHg 59%
    06:00 +21°C° 0 mm 4 mps 755 mmHg 58%
    07:00 +23°C° 0 mm 4 mps 756 mmHg 57%
    08:00 +26°C° 0 mm 4 mps 756 mmHg 56%
    09:00 +27°C° 0 mm 3 mps 756 mmHg 53%
    10:00 +29°C° 0 mm 3 mps 756 mmHg 49%
    11:00 +30°C° 0 mm 3 mps 756 mmHg 45%
    12:00 +31°C° 0 mm 3 mps 756 mmHg 44%
    13:00 +31°C° 0 mm 3 mps 756 mmHg 43%
    14:00 +33°C° 0 mm 3 mps 756 mmHg 42%
    15:00 +31°C° 0 mm 3 mps 756 mmHg 44%
    16:00 +32°C° 0 mm 4 mps 756 mmHg 46%
    17:00 +30°C° 0 mm 4 mps 756 mmHg 48%
    18:00 +28°C° 0 mm 4 mps 756 mmHg 55%
    19:00 +25°C° 0 mm 4 mps 756 mmHg 61%
    20:00 +22°C° 0 mm 4 mps 757 mmHg 67%
    21:00 +21°C° 0 mm 3 mps 757 mmHg 69%
    22:00 +20°C° 0 mm 3 mps 757 mmHg 70%
    23:00 +19°C° 0 mm 2 mps 758 mmHg 71%

    30 May, Thursday

    Time Temperature Precipitation Wind Pressure Humidity
    00:00 +19°C° 0 mm 2 mps 758 mmHg 71%
    01:00 +18°C° 0 mm 2 mps 758 mmHg 71%
    02:00 +18°C° 0 mm 2 mps 758 mmHg 72%
    03:00 +18°C° 0 mm 2 mps 758 mmHg 72%
    04:00 +18°C° 0 mm 2 mps 758 mmHg 72%
    05:00 +18°C° 0 mm 2 mps 758 mmHg 72%
    06:00 +21°C° 0 mm 2 mps 759 mmHg 69%
    07:00 +24°C° 0 mm 2 mps 759 mmHg 66%
    08:00 +26°C° 0 mm 2 mps 759 mmHg 63%
    09:00 +27°C° 0 mm 2 mps 759 mmHg 59%
    10:00 +28°C° 0 mm 3 mps 759 mmHg 55%
    11:00 +30°C° 0 mm 3 mps 759 mmHg 51%
    12:00 +30°C° 0 mm 3 mps 759 mmHg 51%
    13:00 +30°C° 0 mm 3 mps 759 mmHg 51%
    14:00 +30°C° 0 mm 3 mps 759 mmHg 50%
    15:00 +29°C° 0 mm 3 mps 759 mmHg 53%
    16:00 +29°C° 0 mm 2 mps 759 mmHg 55%
    17:00 +28°C° 0 mm 2 mps 759 mmHg 58%
    18:00 +26°C° 0 mm 2 mps 759 mmHg 65%
    19:00 +24°C° 0 mm 1 mps 759 mmHg 73%
    20:00 +21°C° 0 mm 1 mps 759 mmHg 80%
    21:00 +21°C° 0 mm 1 mps 759 mmHg 78%
    22:00 +21°C° 0 mm 1 mps 759 mmHg 76%
    23:00 +21°C° 0 mm 1 mps 759 mmHg 75%
    Show more